TimeMST,TemperatureF,Dew PointF,Humidity,Sea Level PressureIn,VisibilityMPH,Wind Direction,Wind SpeedMPH,Gust SpeedMPH,PrecipitationIn,Events,Conditions,WindDirDegrees,DateUTC
12:53 AM,28.0,26.1,92,30.04,10.0,Calm,Calm,-,N/A,,Overcast,0,2013-11-04 07:53:00
1:07 AM,28.4,26.6,93,29.96,10.0,Calm,Calm,-,N/A,,Overcast,0,2013-11-04 08:07:00
1:53 AM,28.9,27.0,92,30.03,10.0,Calm,Calm,-,N/A,,Overcast,0,2013-11-04 08:53:00
2:53 AM,28.0,27.0,96,30.03,10.0,WSW,4.6,-,N/A,,Overcast,250,2013-11-04 09:53:00
3:53 AM,28.9,28.0,96,30.02,10.0,Calm,Calm,-,N/A,,Overcast,0,2013-11-04 10:53:00
4:53 AM,30.0,28.0,92,30.02,10.0,ESE,4.6,-,N/A,,Overcast,120,2013-11-04 11:53:00
5:53 AM,28.9,28.0,96,30.04,10.0,Calm,Calm,-,N/A,,Overcast,0,2013-11-04 12:53:00
6:27 AM,28.4,28.4,100,29.97,8.0,NNW,3.5,-,0.00,Snow,Light Snow,330,2013-11-04 13:27:00
6:53 AM,28.9,28.0,96,30.06,8.0,WNW,3.5,-,0.00,,Overcast,300,2013-11-04 13:53:00
7:53 AM,28.0,27.0,96,30.09,6.0,Calm,Calm,-,0.00,,Overcast,0,2013-11-04 14:53:00
8:45 AM,28.4,26.6,93,30.01,8.0,WSW,4.6,-,N/A,,Overcast,250,2013-11-04 15:45:00
8:53 AM,28.0,27.0,96,30.10,7.0,West,3.5,-,N/A,,Overcast,260,2013-11-04 15:53:00
9:53 AM,30.9,28.0,89,30.11,10.0,Calm,Calm,-,N/A,,Overcast,0,2013-11-04 16:53:00
10:53 AM,30.9,28.9,92,30.12,10.0,Calm,Calm,-,N/A,,Mostly Cloudy,0,2013-11-04 17:53:00
11:19 AM,32.0,28.4,87,30.03,10.0,Calm,Calm,-,N/A,,Mostly Cloudy,0,2013-11-04 18:19:00
11:53 AM,33.1,28.9,85,30.10,10.0,Calm,Calm,-,N/A,,Overcast,0,2013-11-04 18:53:00
12:53 PM,34.0,28.0,79,30.11,10.0,South,3.5,-,N/A,,Overcast,190,2013-11-04 19:53:00
1:34 PM,33.8,28.4,81,30.02,10.0,South,9.2,-,N/A,,Overcast,180,2013-11-04 20:34:00
1:53 PM,34.0,28.0,79,30.10,10.0,SSE,8.1,-,N/A,,Overcast,150,2013-11-04 20:53:00
2:53 PM,34.0,28.0,79,30.12,10.0,SE,6.9,-,N/A,,Scattered Clouds,140,2013-11-04 21:53:00
3:53 PM,32.0,28.0,85,30.14,10.0,SSE,9.2,-,N/A,,Mostly Cloudy,150,2013-11-04 22:53:00
4:09 PM,32.0,28.4,87,30.06,10.0,North,5.8,-,N/A,,Overcast,360,2013-11-04 23:09:00
4:16 PM,32.0,28.4,87,30.06,2.5,NE,3.5,-,0.00,Snow,Light Snow,40,2013-11-04 23:16:00
4:22 PM,32.0,28.4,87,30.06,1.8,NE,4.6,-,0.00,Snow,Light Snow,40,2013-11-04 23:22:00
4:26 PM,32.0,28.4,87,30.06,3.0,NNE,4.6,-,0.00,Snow,Light Snow,30,2013-11-04 23:26:00
4:34 PM,30.2,26.6,86,30.06,9.0,NE,4.6,-,0.00,,Mostly Cloudy,40,2013-11-04 23:34:00
4:45 PM,30.2,26.6,86,30.06,10.0,ENE,4.6,-,0.00,,Scattered Clouds,70,2013-11-04 23:45:00
4:53 PM,30.9,27.0,85,30.15,10.0,Calm,Calm,-,0.00,,Scattered Clouds,0,2013-11-04 23:53:00
5:53 PM,30.9,27.0,85,30.17,10.0,Calm,Calm,-,N/A,,Overcast,0,2013-11-05 00:53:00
6:53 PM,28.0,26.1,92,30.20,10.0,Calm,Calm,-,N/A,,Mostly Cloudy,0,2013-11-05 01:53:00
7:53 PM,27.0,25.0,92,30.22,10.0,Calm,Calm,-,N/A,,Mostly Cloudy,0,2013-11-05 02:53:00
8:53 PM,27.0,24.1,89,30.23,10.0,Calm,Calm,-,N/A,,Overcast,0,2013-11-05 03:53:00
9:53 PM,25.0,23.0,92,30.24,10.0,West,4.6,-,N/A,,Scattered Clouds,270,2013-11-05 04:53:00
10:53 PM,26.1,24.1,92,30.24,10.0,Calm,Calm,-,N/A,,Partly Cloudy,0,2013-11-05 05:53:00
11:53 PM,25.0,23.0,92,30.24,10.0,Calm,Calm,-,N/A,,Overcast,0,2013-11-05 06:53:00